KN5D-2 Weather Reports


Display with metric or nautical units.
time (UTC)temp
F
wind
direction
speed
MPH
gust
MPH
rain 1hr
in
rain 24hr
in
rain mn
in
humidity
%
barometer
mb
20220527163937 87 46 0.0 0.0 0.00 0.00 0.00 44 1016.5
20220527163437 87 242 0.0 0.0 0.00 0.00 0.00 41 1016.5
20220527162937 86 240 0.0 4.0 0.00 0.00 0.00 45 1016.5
20220527162437 86 215 0.0 4.0 0.00 0.00 0.00 44 1016.6
20220527161937 86 208 0.0 0.0 0.00 0.00 0.00 39 1016.6
20220527161437 86 170 0.0 5.0 0.00 0.00 0.00 34 1016.5
20220527160937 85 261 0.0 0.0 0.00 0.00 0.00 23 1016.6
20220527160437 85 31 0.0 0.0 0.00 0.00 0.00 8 1016.6
20220527155937 84 34 0.0 0.0 0.00 0.00 0.00 15 1016.6
20220527155437 84 33 0.0 6.0 0.00 0.00 0.00 13 1016.6
20220527154937 85 194 0.0 0.0 0.00 0.00 0.00 19 1016.7
20220527154437 85 180 0.0 5.0 0.00 0.00 0.00 15 1016.7
20220527153937 85 239 0.0 6.0 0.00 0.00 0.00 12 1016.7
20220527153437 84 295 0.0 0.0 0.00 0.00 0.00 10 1016.7
20220527152937 83 344 0.0 0.0 0.00 0.00 0.00 1 1016.7
20220527152437 83 46 0.0 0.0 0.00 0.00 0.00 1 1016.7
20220527151937 83 45 0.0 0.0 0.00 0.00 0.00 1 1016.6
20220527151437 82 5 0.0 0.0 0.00 0.00 0.00 1 1016.7
20220527150937 82 5 0.0 0.0 0.00 0.00 0.00 1 1016.6
20220527150437 81 25 0.0 0.0 0.00 0.00 0.00 1 1016.6
20220527145937 81 41 0.0 0.0 0.00 0.00 0.00 1 1016.6
20220527145437 80 0 0.0 0.0 0.00 0.00 0.00 1 1016.6
20220527144937 80 5 0.0 0.0 0.00 0.00 0.00 1 1016.6
20220527144437 80 31 0.0 0.0 0.00 0.00 0.00 1 1016.6
20220527143937 80 38 0.0 0.0 0.00 0.00 0.00 1 1016.6
20220527143437 80 38 0.0 0.0 0.00 0.00 0.00 1 1016.6
20220527142937 80 38 0.0 0.0 0.00 0.00 0.00 1 1016.6
20220527142437 80 40 0.0 0.0 0.00 0.00 0.00 1 1016.5
20220527141937 79 40 0.0 0.0 0.00 0.00 0.00 1 1016.5
20220527141437 79 40 0.0 0.0 0.00 0.00 0.00 1 1016.6
20220527140937 78 42 0.0 0.0 0.00 0.00 0.00 1 1016.6
20220527140437 78 5 0.0 0.0 0.00 0.00 0.00 1 1016.6
20220527135937 77 17 1.0 0.0 0.00 0.00 0.00 1 1016.6
20220527135437 76 19 1.0 4.0 0.00 0.00 0.00 1 1016.6
20220527134937 76 19 0.0 3.0 0.00 0.00 0.00 1 1016.6
20220527134437 75 19 1.0 0.0 0.00 0.00 0.00 1 1016.6
20220527133937 75 19 2.0 7.0 0.00 0.00 0.00 1 1016.5
20220527133437 74 17 1.0 4.0 0.00 0.00 0.00 1 1016.5
20220527132937 74 18 1.0 3.0 0.00 0.00 0.00 1 1016.5
20220527132437 74 19 0.0 4.0 0.00 0.00 0.00 1 1016.5
20220527131937 74 19 0.0 5.0 0.00 0.00 0.00 1 1016.4
20220527131437 73 19 0.0 0.0 0.00 0.00 0.00 1 1016.5
20220527130937 73 19 0.0 0.0 0.00 0.00 0.00 1 1016.5
20220527130437 73 19 0.0 0.0 0.00 0.00 0.00 1 1016.4
20220527125937 72 19 0.0 3.0 0.00 0.00 0.00 1 1016.3
20220527125437 72 21 1.0 2.0 0.00 0.00 0.00 1 1016.3
20220527124937 72 20 0.0 5.0 0.00 0.00 0.00 1 1016.3
20220527124438 71 306 0.0 0.0 0.00 0.00 0.00 1 1016.2
20220527123937 71 306 0.0 2.0 0.00 0.00 0.00 1 1016.2
20220527123437 71 306 1.0 3.0 0.00 0.00 0.00 1 1016.1
20220527122938 70 306 1.0 3.0 0.00 0.00 0.00 1 1016.0
20220527122438 70 219 0.0 0.0 0.00 0.00 0.00 1 1016.0
20220527121938 69 219 0.0 0.0 0.00 0.00 0.00 1 1015.9
20220527121438 69 219 0.0 0.0 0.00 0.00 0.00 1 1015.9
20220527120938 69 219 0.0 0.0 0.00 0.00 0.00 1 1015.9
20220527120438 69 219 0.0 0.0 0.00 0.00 0.00 1 1015.8
20220527115938 69 219 0.0 1.0 0.00 0.00 0.00 1 1015.7
20220527115438 69 219 0.0 0.0 0.00 0.00 0.00 1 1015.6
20220527114938 69 219 0.0 0.0 0.00 0.00 0.00 1 1015.5
20220527114438 68 219 0.0 0.0 0.00 0.00 0.00 1 1015.5
20220527113938 68 219 0.0 0.0 0.00 0.00 0.00 1 1015.5
20220527113438 69 219 0.0 0.0 0.00 0.00 0.00 1 1015.3
20220527112938 68 219 0.0 0.0 0.00 0.00 0.00 1 1015.4
20220527112438 69 219 0.0 0.0 0.00 0.00 0.00 1 1015.3
20220527111938 68 219 0.0 0.0 0.00 0.00 0.00 1 1015.1
20220527111438 68 219 0.0 0.0 0.00 0.00 0.00 1 1015.0
20220527110938 69 219 0.0 0.0 0.00 0.00 0.00 1 1015.1
20220527110438 69 219 0.0 0.0 0.00 0.00 0.00 1 1014.9
20220527105938 69 219 0.0 0.0 0.00 0.00 0.00 1 1014.9
20220527105438 69 219 0.0 0.0 0.00 0.00 0.00 1 1014.8
20220527104938 69 219 0.0 0.0 0.00 0.00 0.00 1 1014.8
20220527104438 69 219 0.0 0.0 0.00 0.00 0.00 1 1014.7
20220527103938 69 219 0.0 0.0 0.00 0.01 0.00 1 1014.7
20220527103438 69 219 0.0 0.0 0.00 0.01 0.00 1 1014.7
20220527102938 69 219 0.0 0.0 0.00 0.01 0.00 1 1014.6
20220527102438 69 219 0.0 0.0 0.00 0.01 0.00 1 1014.6
20220527101938 69 219 0.0 0.0 0.00 0.01 0.00 1 1014.5
20220527101438 69 219 0.0 0.0 0.00 0.01 0.00 1 1014.5
20220527100938 69 219 0.0 0.0 0.00 0.01 0.00 1 1014.5
20220527100438 69 219 0.0 0.0 0.00 0.01 0.00 1 1014.4
20220527095938 69 219 0.0 0.0 0.00 0.01 0.00 1 1014.4
20220527095438 69 219 0.0 0.0 0.00 0.01 0.00 1 1014.3
20220527094938 70 219 0.0 0.0 0.00 0.01 0.00 1 1014.2
20220527094438 70 219 0.0 0.0 0.00 0.01 0.00 1 1014.2
20220527093938 70 219 0.0 0.0 0.00 0.01 0.00 1 1014.1
20220527093438 70 219 0.0 0.0 0.00 0.01 0.00 1 1014.1
20220527092938 70 219 0.0 0.0 0.00 0.01 0.00 1 1014.0
20220527092438 70 219 0.0 0.0 0.00 0.01 0.00 1 1014.0
20220527091938 70 219 0.0 0.0 0.00 0.01 0.00 1 1014.0
20220527091438 70 219 0.0 0.0 0.00 0.01 0.00 1 1014.0
20220527090938 70 219 0.0 0.0 0.00 0.01 0.00 1 1014.0
20220527090438 70 219 0.0 0.0 0.00 0.01 0.00 1 1013.9
20220527085938 70 219 0.0 0.0 0.00 0.01 0.00 1 1013.9
20220527085438 70 219 0.0 0.0 0.00 0.01 0.00 1 1013.9
20220527084938 70 219 0.0 0.0 0.00 0.01 0.00 1 1013.9
20220527084438 70 219 0.0 0.0 0.00 0.01 0.00 1 1013.9
20220527083938 70 219 0.0 0.0 0.00 0.01 0.00 1 1013.9
20220527083438 70 219 0.0 0.0 0.00 0.01 0.00 1 1013.9
20220527082938 71 219 0.0 0.0 0.00 0.01 0.00 1 1013.8
20220527082438 71 219 0.0 0.0 0.00 0.01 0.00 1 1013.9
20220527081938 71 219 0.0 0.0 0.00 0.01 0.00 1 1013.8
20220527081438 71 219 0.0 0.0 0.00 0.01 0.00 1 1013.8
20220527080939 71 219 0.0 0.0 0.00 0.01 0.00 1 1013.8
20220527080439 71 219 0.0 0.0 0.00 0.01 0.00 1 1013.9
20220527075939 71 219 0.0 0.0 0.00 0.01 0.00 1 1013.9
20220527075439 71 219 0.0 0.0 0.00 0.01 0.00 1 1013.9
20220527074939 71 219 0.0 0.0 0.00 0.01 0.00 1 1014.0
20220527074439 71 219 0.0 0.0 0.00 0.01 0.00 1 1014.0
20220527073939 71 219 0.0 0.0 0.00 0.01 0.00 1 1014.0
20220527073439 71 219 0.0 0.0 0.00 0.01 0.00 1 1014.0
20220527072939 71 219 0.0 0.0 0.00 0.01 0.00 1 1014.0
20220527072439 71 219 0.0 0.0 0.00 0.01 0.00 1 1014.1
20220527071939 71 219 0.0 0.0 0.00 0.01 0.00 1 1014.0
20220527071439 71 219 0.0 0.0 0.00 0.01 0.00 1 1014.0
20220527070939 71 219 0.0 0.0 0.00 0.01 0.00 1 1014.0
20220527070439 71 219 0.0 0.0 0.00 0.01 0.00 1 1014.0
20220527065939 71 219 0.0 0.0 0.00 0.01 0.00 1 1014.0
20220527065439 72 219 0.0 0.0 0.00 0.01 0.00 1 1014.0
20220527064939 72 219 0.0 0.0 0.00 0.01 0.00 1 1014.1
20220527064439 72 219 0.0 0.0 0.00 0.01 0.00 1 1014.1
20220527063939 72 219 0.0 0.0 0.00 0.01 0.00 1 1014.1
20220527063439 72 219 0.0 0.0 0.00 0.01 0.00 1 1014.1
20220527062939 72 219 0.0 0.0 0.00 0.01 0.00 1 1014.1
20220527062439 72 219 0.0 0.0 0.00 0.01 0.00 1 1014.1
20220527061939 72 219 0.0 0.0 0.00 0.01 0.00 1 1014.1
20220527061439 72 219 0.0 0.0 0.00 0.01 0.00 1 1014.2
20220527060939 72 219 0.0 0.0 0.00 0.01 0.00 1 1014.2
20220527060439 72 219 0.0 0.0 0.00 0.01 0.00 1 1014.2
20220527055939 72 219 0.0 0.0 0.00 0.01 0.00 1 1014.2
20220527055439 72 219 0.0 0.0 0.00 0.01 0.00 1 1014.2
20220527054939 72 219 0.0 0.0 0.00 0.01 0.00 1 1014.2
20220527054439 72 219 0.0 0.0 0.00 0.01 0.00 1 1014.2
20220527053939 72 219 0.0 0.0 0.00 0.01 0.00 1 1014.2
20220527053439 73 219 0.0 0.0 0.00 0.01 0.00 1 1014.3
20220527052939 73 219 0.0 0.0 0.00 0.01 0.00 1 1014.3
20220527052439 73 219 0.0 0.0 0.00 0.01 0.00 1 1014.2
20220527051939 73 219 0.0 0.0 0.00 0.01 0.00 1 1014.2
20220527051439 73 219 0.0 0.0 0.00 0.01 0.00 1 1014.2
20220527050939 73 219 0.0 0.0 0.00 0.01 0.00 1 1014.3
20220527050439 73 219 0.0 0.0 0.00 0.01 0.00 1 1014.3
20220527045939 73 219 0.0 0.0 0.00 0.01 0.00 1 1014.2
20220527045439 73 219 0.0 0.0 0.00 0.01 0.01 1 1014.2
20220527044939 73 219 0.0 0.0 0.00 0.01 0.01 1 1014.2
20220527044439 73 219 0.0 2.0 0.00 0.01 0.01 1 1014.2
20220527043939 73 219 0.0 1.0 0.00 0.01 0.01 1 1014.1
20220527043439 73 219 0.0 2.0 0.00 0.01 0.01 1 1014.1
20220527042939 73 219 0.0 0.0 0.00 0.01 0.01 1 1014.0
20220527042439 73 219 0.0 1.0 0.00 0.01 0.01 1 1014.1
20220527041939 73 219 0.0 1.0 0.00 0.01 0.01 1 1014.1
20220527041439 73 219 0.0 0.0 0.00 0.01 0.01 1 1014.0
20220527040939 73 219 0.0 0.0 0.00 0.01 0.01 1 1014.0
20220527040439 73 219 0.0 0.0 0.00 0.01 0.01 1 1014.0
20220527035939 73 219 0.0 0.0 0.00 0.01 0.01 1 1013.9
20220527035439 74 219 0.0 0.0 0.00 0.01 0.01 1 1013.9
20220527034940 74 219 0.0 0.0 0.00 0.01 0.01 1 1013.8
20220527034439 74 219 0.0 0.0 0.00 0.01 0.01 1 1013.8
20220527033940 74 219 0.0 0.0 0.00 0.01 0.01 1 1013.8
20220527033440 74 219 0.0 0.0 0.00 0.01 0.01 1 1013.7
20220527032940 75 219 0.0 0.0 0.00 0.01 0.01 1 1013.6
20220527032440 75 219 0.0 0.0 0.00 0.01 0.01 1 1013.6
20220527031940 75 219 0.0 0.0 0.00 0.01 0.01 1 1013.7
20220527031440 75 219 0.0 0.0 0.00 0.01 0.01 1 1013.6
20220527030940 76 219 0.0 0.0 0.00 0.01 0.01 1 1013.6
20220527030440 76 219 0.0 0.0 0.00 0.01 0.01 2 1013.5
20220527025940 76 219 0.0 0.0 0.00 0.01 0.01 3 1013.4
20220527025440 76 219 0.0 0.0 0.00 0.01 0.01 7 1013.4
20220527024940 76 219 0.0 0.0 0.00 0.01 0.01 11 1013.4
20220527024440 77 219 0.0 0.0 0.00 0.01 0.01 17 1013.3
20220527023940 77 219 0.0 0.0 0.00 0.01 0.01 23 1013.3
20220527023440 77 219 0.0 0.0 0.00 0.01 0.01 26 1013.2
20220527022940 77 219 0.0 0.0 0.00 0.01 0.01 29 1013.1
20220527022440 78 219 0.0 0.0 0.00 0.01 0.01 31 1013.0
20220527021940 78 219 0.0 0.0 0.00 0.01 0.01 34 1013.0
20220527021440 78 219 0.0 0.0 0.00 0.01 0.01 36 1012.9
20220527020940 78 219 0.0 0.0 0.00 0.01 0.01 39 1012.9
20220527020440 79 219 0.0 0.0 0.00 0.01 0.01 42 1012.9
20220527015940 79 219 0.0 0.0 0.00 0.01 0.01 45 1012.8
20220527015440 79 219 0.0 0.0 0.00 0.01 0.01 46 1012.8
20220527014940 80 219 0.0 0.0 0.00 0.01 0.01 48 1012.7
20220527014440 80 219 0.0 0.0 0.00 0.01 0.01 50 1012.6
20220527013940 80 219 0.0 0.0 0.00 0.01 0.01 52 1012.6
20220527013444 80 219 0.0 0.0 0.00 0.01 0.01 53 1012.6
20220527012940 81 219 0.0 0.0 0.00 0.01 0.01 55 1012.6
20220527012440 81 219 0.0 0.0 0.00 0.01 0.01 55 1012.5
20220527011940 81 219 0.0 0.0 0.00 0.01 0.01 56 1012.5
20220527011440 81 219 0.0 0.0 0.00 0.01 0.01 56 1012.4
20220527010940 82 219 0.0 0.0 0.00 0.01 0.01 56 1012.4
20220527010440 82 219 0.0 0.0 0.00 0.01 0.01 57 1012.3
20220527005940 83 229 0.0 0.0 0.00 0.01 0.01 56 1012.3
20220527005440 83 229 0.0 0.0 0.00 0.01 0.01 56 1012.2
20220527004940 83 229 0.0 0.0 0.00 0.01 0.01 56 1012.1
20220527004440 84 229 0.0 0.0 0.00 0.01 0.01 56 1012.0
20220527003940 84 229 0.0 0.0 0.00 0.01 0.01 56 1011.9
20220527003440 85 232 1.0 3.0 0.00 0.01 0.01 56 1011.9
20220527002940 85 232 2.0 3.0 0.00 0.01 0.01 56 1011.8
20220527002440 86 232 2.0 5.0 0.00 0.01 0.01 55 1011.7
20220527001940 86 191 1.0 3.0 0.00 0.01 0.01 55 1011.7
20220527001440 87 196 1.0 4.0 0.00 0.01 0.01 55 1011.7
20220527000940 88 217 1.0 4.0 0.00 0.01 0.01 54 1011.6
20220527000440 88 217 1.0 2.0 0.00 0.01 0.01 53 1011.6
20220526235940 89 217 1.0 4.0 0.00 0.01 0.01 52 1011.5
20220526235440 90 180 0.0 4.0 0.00 0.01 0.01 50 1011.5
20220526234940 90 189 0.0 0.0 0.00 0.01 0.01 47 1011.5
20220526234440 91 199 0.0 0.0 0.00 0.01 0.01 42 1011.5
20220526233941 91 199 0.0 0.0 0.00 0.01 0.01 41 1011.5
20220526233440 92 199 0.0 0.0 0.00 0.01 0.01 40 1011.5
20220526232940 92 199 0.0 0.0 0.00 0.01 0.01 40 1011.5
20220526232440 92 199 0.0 0.0 0.00 0.01 0.01 39 1011.5
20220526231941 93 199 0.0 0.0 0.00 0.01 0.01 39 1011.4
20220526231441 93 199 0.0 0.0 0.00 0.01 0.01 39 1011.5
20220526230941 94 199 0.0 0.0 0.00 0.01 0.01 39 1011.5
20220526230441 94 211 0.0 0.0 0.00 0.01 0.01 39 1011.5
20220526225941 95 225 0.0 0.0 0.00 0.01 0.01 37 1011.6
20220526225441 95 223 0.0 0.0 0.00 0.01 0.01 38 1011.6
20220526224941 95 234 0.0 0.0 0.00 0.01 0.01 40 1011.7
20220526224441 95 233 0.0 0.0 0.00 0.01 0.01 38 1011.7
20220526223941 95 237 0.0 0.0 0.00 0.01 0.01 38 1011.7
20220526223441 95 237 0.0 0.0 0.00 0.01 0.01 37 1011.8
20220526222941 95 236 0.0 0.0 0.00 0.01 0.01 38 1011.8
20220526222441 95 237 0.0 0.0 0.00 0.01 0.01 36 1011.8
20220526221941 96 237 0.0 0.0 0.00 0.01 0.01 37 1011.9
20220526221441 96 237 0.0 0.0 0.00 0.01 0.01 38 1011.9
20220526220941 96 237 0.0 0.0 0.00 0.01 0.01 36 1011.9
20220526220441 96 237 0.0 0.0 0.00 0.01 0.01 38 1011.9
20220526215941 95 236 0.0 0.0 0.00 0.01 0.01 36 1011.9
20220526215441 95 235 0.0 0.0 0.00 0.01 0.01 36 1011.9
20220526214941 95 234 0.0 0.0 0.00 0.01 0.01 37 1011.9
20220526214441 95 263 0.0 0.0 0.00 0.01 0.01 38 1011.9
20220526213941 95 263 0.0 0.0 0.00 0.01 0.01 37 1012.0
20220526213441 95 265 0.0 0.0 0.00 0.01 0.01 37 1012.0
20220526212941 95 266 0.0 0.0 0.00 0.01 0.01 35 1012.1
20220526212441 95 204 0.0 2.0 0.00 0.01 0.01 36 1012.2
20220526211941 95 260 0.0 1.0 0.00 0.01 0.01 37 1012.3
20220526211441 94 346 0.0 0.0 0.00 0.01 0.01 38 1012.3
20220526210941 94 9 0.0 1.0 0.00 0.01 0.01 37 1012.3
20220526210441 94 130 0.0 1.0 0.00 0.01 0.01 37 1012.4
20220526205941 94 219 0.0 0.0 0.00 0.01 0.01 39 1012.4
20220526205441 94 239 0.0 0.0 0.00 0.01 0.01 38 1012.5
20220526204941 94 218 0.0 4.0 0.00 0.01 0.01 37 1012.5
20220526204441 94 239 0.0 0.0 0.00 0.01 0.01 36 1012.5
20220526203941 94 225 0.0 0.0 0.00 0.01 0.01 38 1012.5
20220526203441 94 26 0.0 0.0 0.00 0.01 0.01 37 1012.5
20220526202941 94 283 0.0 0.0 0.00 0.01 0.01 38 1012.6
20220526202441 94 210 0.0 0.0 0.00 0.01 0.01 37 1012.7
20220526201941 94 180 0.0 0.0 0.00 0.01 0.01 40 1012.6
20220526201441 94 180 0.0 0.0 0.00 0.01 0.01 39 1012.8
20220526200941 94 177 0.0 0.0 0.00 0.01 0.01 41 1012.9
20220526200441 94 24 0.0 0.0 0.00 0.01 0.01 38 1012.9
20220526195941 94 257 0.0 0.0 0.00 0.01 0.01 40 1013.0
20220526195441 94 196 0.0 0.0 0.00 0.01 0.01 37 1013.0
20220526194941 94 231 0.0 3.0 0.00 0.01 0.01 38 1013.0
20220526194441 93 209 0.0 0.0 0.00 0.01 0.01 39 1013.1
20220526193941 93 216 0.0 2.0 0.00 0.01 0.01 44 1013.1
20220526193441 93 232 0.0 0.0 0.00 0.01 0.01 38 1013.2
20220526192941 92 309 0.0 0.0 0.00 0.01 0.01 41 1013.3
20220526192441 92 208 0.0 1.0 0.00 0.01 0.01 38 1013.4
20220526191941 92 227 0.0 5.0 0.00 0.01 0.01 37 1013.5
20220526191441 92 260 0.0 0.0 0.00 0.01 0.01 39 1013.5
20220526190941 92 260 0.0 0.0 0.00 0.01 0.01 43 1013.4
20220526190441 91 334 0.0 0.0 0.00 0.01 0.01 38 1013.4
20220526185941 92 323 0.0 0.0 0.00 0.01 0.01 38 1013.5
20220526185442 92 177 0.0 3.0 0.00 0.01 0.01 38 1013.5
20220526184942 92 180 0.0 6.0 0.00 0.01 0.01 41 1013.5
20220526184442 92 235 0.0 3.0 0.00 0.01 0.01 41 1013.6
20220526183942 91 230 0.0 0.0 0.00 0.01 0.01 39 1013.7
20220526183442 91 194 0.0 0.0 0.00 0.01 0.01 42 1013.7
20220526182942 91 246 0.0 0.0 0.00 0.01 0.01 39 1013.9
20220526182442 91 201 0.0 0.0 0.00 0.01 0.01 42 1013.9
20220526181942 91 219 0.0 0.0 0.00 0.01 0.01 42 1013.9
20220526181442 91 219 0.0 3.0 0.00 0.01 0.01 43 1014.0
20220526180942 90 111 0.0 0.0 0.00 0.01 0.01 43 1014.1
20220526180442 91 221 0.0 0.0 0.00 0.01 0.01 41 1014.1
20220526175942 90 211 0.0 0.0 0.00 0.01 0.01 42 1014.1
20220526175442 90 227 0.0 0.0 0.00 0.01 0.01 43 1014.3
20220526174942 90 257 0.0 0.0 0.00 0.01 0.01 43 1014.4
20220526174442 90 281 0.0 0.0 0.00 0.01 0.01 42 1014.5
20220526173942 90 209 0.0 0.0 0.00 0.01 0.01 46 1014.5
20220526173442 90 200 0.0 0.0 0.00 0.01 0.01 44 1014.5
20220526172942 90 286 0.0 4.0 0.00 0.01 0.01 42 1014.6
20220526172442 90 220 0.0 5.0 0.00 0.01 0.01 43 1014.7
20220526171942 90 235 0.0 0.0 0.00 0.01 0.01 44 1014.7
20220526171442 90 175 0.0 0.0 0.00 0.01 0.01 42 1014.8
20220526170942 89 42 0.0 0.0 0.00 0.01 0.01 45 1014.8
20220526170442 90 327 0.0 0.0 0.00 0.01 0.01 45 1014.8
20220526165942 89 277 0.0 0.0 0.00 0.01 0.01 47 1014.8
20220526165442 89 274 0.0 0.0 0.00 0.01 0.01 48 1014.9
20220526164942 89 304 0.0 0.0 0.00 0.01 0.01 47 1015.0
20220526164442 88 213 0.0 0.0 0.00 0.01 0.01 49 1014.9